Helicity
67 31 27 54 82 68 44 30 -34 -27 82 76 146 152 72 48 87 119 156 153 148 79 73 67 86 95 111 108 100 93 82 78 76 91 104 105 84 73 65 64 66 72 63 78 76 73 71 73 91
15 18 46 93 114 86 52 -14 -47 -10 116 156 166 83 114 49 31 62 104 89 70 57 51 47 64 94 111 108 111 101 79 81 84 88 100 97 84 79 62 69 65 59 57 82 77 70 74 82 96
-27 -30 68 119 100 70 57 13 -36 66 156 132 119 36 53 45 44 70 165 82 67 83 22 49 65 83 99 100 101 88 78 79 85 89 90 82 79 68 57 56 68 69 68 76 66 69 96 107 101
58 59 88 128 62 56 17 -38 63 40 84 89 115 65 46 80 108 97 111 101 69 82 48 83 66 69 82 82 79 73 76 84 86 82 81 74 74 77 61 58 70 46 50 50 68 83 97 96 89
22 86 130 101 61 31 15 43 54 63 95 47 34 77 43 93 63 85 95 121 102 170 116 72 80 70 67 72 73 75 82 80 63 69 72 75 54 64 67 76 58 53 51 47 44 31 82 85 60
132 67 105 91 35 -9 -24 -18 25 49 96 45 78 65 75 47 52 97 107 114 131 150 72 82 76 70 61 63 68 75 74 59 59 53 60 59 47 56 67 67 58 70 179 203 124 49 60 84 55
50 78 83 46 48 39 15 17 34 77 53 35 30 39 43 120 165 142 99 155 151 140 113 93 75 67 64 69 66 75 72 59 55 61 45 30 57 69 66 66 93 187 162 140 171 17 21 50 36
37 60 47 56 50 31 11 51 59 107 115 51 94 91 75 155 194 234 163 199 185 163 138 93 84 70 74 71 71 76 75 71 65 90 65 56 88 94 107 179 191 172 140 109 127 181 73 76 38
9 101 106 56 35 21 -8 4 56 63 91 110 61 92 62 157 116 128 96 192 212 166 133 142 96 74 77 86 86 86 88 89 86 111 98 104 121 146 180 191 191 165 126 83 73 172 136 80 57
58 94 68 16 26 15 31 82 81 78 100 121 94 58 54 93 91 95 101 135 196 165 168 144 121 94 112 97 126 90 92 100 101 110 126 124 148 184 178 200 186 210 162 128 57 166 112 91 97
58 95 55 46 16 35 63 81 68 99 119 76 60 31 45 58 97 110 164 116 165 158 159 138 140 123 106 91 120 97 105 96 109 98 121 113 198 185 200 217 227 225 177 148 200 166 127 76 99
52 46 43 50 31 72 97 48 64 131 99 67 56 72 65 40 60 133 125 78 104 179 191 148 115 114 101 121 113 80 121 110 123 110 112 107 202 179 201 196 198 252 201 164 198 173 120 162 111
52 36 27 37 31 37 60 99 158 98 58 55 63 63 76 93 82 45 124 67 52 84 213 211 183 129 97 87 79 116 185 161 130 140 144 127 152 152 170 191 162 170 185 200 204 154 142 128 93
48 48 33 36 43 56 73 72 74 73 44 45 48 69 75 82 75 70 83 75 47 60 129 312 241 159 97 94 249 209 204 169 143 160 147 111 131 133 193 175 187 160 210 223 185 169 248 137 103
98 183 158 132 99 90 41 62 76 40 19 21 27 49 62 73 86 86 82 73 36 44 75 367 269 222 116 228 214 185 185 173 149 132 133 114 100 116 127 161 163 186 186 211 203 230 195 105 105
107 94 113 100 44 20 21 69 39 2 -14 3 15 36 50 58 76 84 83 60 26 37 103 311 317 220 151 246 205 164 145 163 165 128 125 105 73 97 111 148 172 194 185 191 183 205 121 81 70
103 97 89 72 4 22 55 131 29 -9 22 89 43 43 61 44 31 63 88 76 28 15 120 361 335 253 192 165 185 200 160 145 141 127 105 123 88 91 121 158 161 150 168 155 162 187 89 105 149
54 64 52 69 9 19 47 49 39 53 91 93 52 62 36 53 59 53 58 72 48 28 92 337 363 314 254 188 207 240 161 120 131 158 159 140 108 130 152 140 131 161 173 148 138 186 116 185 132
33 48 65 72 61 91 110 88 37 41 56 70 38 -3 4 25 45 42 24 76 59 41 62 341 335 343 305 210 302 296 223 178 192 201 186 149 118 149 215 198 185 167 169 148 131 195 180 208 109
38 70 49 49 67 92 116 55 14 18 3 43 53 44 27 27 38 47 46 77 82 68 117 287 316 341 283 200 307 188 209 169 178 184 192 157 165 174 202 177 159 149 142 143 195 191 215 171 75
60 61 36 26 15 34 59 40 -2 9 32 11 27 65 44 28 51 69 35 66 66 83 206 216 276 263 186 225 220 185 175 220 187 156 177 172 170 194 203 185 162 152 142 172 250 230 221 219 181
58 26 11 29 39 56 45 -6 54 26 27 -9 43 49 53 56 56 53 19 75 55 165 228 218 309 212 176 261 159 204 216 250 190 192 165 164 170 180 163 146 152 167 188 249 198 203 227 272 193
59 61 99 77 103 50 45 61 45 9 42 4 179 142 180 157 52 36 68 66 57 184 244 226 338 179 193 203 138 219 187 165 170 132 172 229 238 179 126 88 115 162 172 223 242 269 266 375 209
41 93 50 52 86 40 28 21 27 15 103 221 274 273 172 105 195 225 156 79 44 97 284 289 326 208 193 163 143 217 186 123 191 218 233 243 224 158 112 95 121 186 167 174 242 208 258 306 300
59 75 63 43 56 32 16 9 -12 125 141 165 144 159 192 98 99 190 221 256 237 84 301 383 342 252 202 153 145 196 141 136 246 201 224 233 178 128 95 79 92 101 153 215 181 234 316 355 298
11 53 75 19 36 35 19 57 50 227 141 129 108 156 162 72 20 126 221 295 233 173 258 334 330 254 222 175 157 159 152 174 201 164 204 181 132 130 107 103 99 106 175 148 174 230 304 368 255
1 106 -24 -9 -6 -5 27 35 34 61 199 95 172 105 100 67 74 117 153 205 238 132 249 307 268 232 201 130 119 174 154 158 182 219 199 146 122 110 100 86 80 98 123 126 167 188 288 352 252
18 31 59 74 53 27 10 -1 30 157 97 167 141 81 53 64 92 131 149 210 310 117 235 311 234 231 201 153 132 192 156 178 191 173 135 105 89 91 95 89 77 61 97 111 135 208 202 226 117
42 20 80 101 80 41 20 52 202 165 162 115 66 58 59 55 96 146 212 275 438 311 121 93 109 119 130 98 195 210 147 141 143 115 114 98 82 81 80 91 80 24 58 86 116 195 217 254 362
124 23 72 82 51 49 4 -8 30 31 -90 -8 48 38 57 45 77 144 194 264 337 348 346 42 46 108 120 204 238 203 162 119 134 125 125 110 98 56 47 65 58 41 42 65 84 91 55 117 153
Wind_Speed
24 25 30 41 42 39 48 49 55 67 47 49 38 38 42 46 42 31 18 18 17 18 18 18 19 19 19 18 16 13 11 9 9 10 10 11 11 11 11 12 13 13 13 15 12 9 7 8 8
19 20 31 43 42 49 51 42 45 64 44 35 36 42 48 44 33 17 15 13 16 18 16 16 17 18 18 16 15 12 8 7 7 7 7 7 8 9 9 9 9 9 10 13 14 12 8 6 5
26 22 35 39 40 40 55 63 69 38 32 40 43 39 40 36 33 27 13 10 13 15 14 16 16 17 18 16 15 12 9 7 6 6 5 5 6 8 8 6 5 6 8 10 10 10 9 6 4
23 32 40 45 35 38 34 62 76 57 39 45 50 49 30 31 30 28 11 8 9 12 12 15 14 16 18 17 16 14 11 9 7 5 5 5 6 6 8 6 4 4 4 5 6 6 5 4 3
25 32 44 48 42 53 83 87 78 57 61 44 35 45 41 29 30 21 12 9 7 12 13 12 13 16 18 17 17 15 12 10 7 5 4 3 5 6 6 5 4 3 6 12 15 12 7 6 7
33 35 47 46 56 61 65 67 71 60 51 44 41 44 49 39 23 19 10 10 8 10 12 12 12 15 17 17 17 16 12 10 6 4 3 1 3 3 5 5 4 2 9 13 17 28 15 10 6
38 41 48 58 73 78 74 63 65 52 50 58 52 56 50 42 31 20 11 10 11 10 12 12 12 15 15 16 17 16 13 11 8 6 5 3 1 2 3 3 3 3 2 6 9 30 27 22 16
40 51 58 63 66 74 67 75 57 57 66 63 54 65 53 30 30 32 28 12 12 12 12 11 11 12 13 15 16 15 13 12 10 10 11 9 5 4 3 4 4 6 5 5 4 7 14 13 14
42 56 58 59 61 72 70 75 58 53 70 62 56 50 42 26 26 30 31 19 17 16 13 12 10 10 10 13 14 13 12 13 12 14 15 12 8 7 3 5 7 7 8 7 8 3 5 9 12
42 56 55 59 71 74 75 72 62 60 59 56 60 60 41 29 33 34 33 28 24 21 20 15 14 10 8 12 14 11 11 14 14 14 15 14 9 7 6 8 9 8 8 9 6 6 8 7 20
42 60 60 66 81 82 80 71 69 67 70 62 57 48 51 52 46 45 42 41 28 25 22 17 14 15 10 9 11 12 12 14 14 14 9 8 8 6 8 12 12 12 13 15 20 16 6 7 18
55 55 61 67 74 84 85 78 71 82 82 73 70 62 56 50 50 43 42 35 51 26 23 20 16 12 10 8 10 10 12 10 16 13 9 9 10 8 10 15 15 18 23 19 18 15 17 15 25
62 66 65 67 73 75 83 77 86 90 81 80 76 69 62 62 62 53 42 58 49 35 26 23 19 15 11 7 7 12 12 16 16 15 11 9 10 9 9 14 13 18 22 21 19 19 16 38 33
64 72 74 71 75 72 76 87 79 84 86 87 77 72 69 60 64 68 49 47 52 43 31 27 23 18 14 12 15 17 14 16 20 21 13 9 11 11 11 12 13 13 18 19 21 22 26 43 58
67 76 74 74 78 79 78 90 83 88 88 93 84 76 68 60 58 61 58 56 44 44 35 30 26 20 18 18 18 19 16 17 19 19 12 14 14 11 9 8 8 11 15 20 22 25 38 42 77
69 66 79 70 64 63 60 98 83 78 77 76 69 71 70 63 54 59 65 73 70 46 35 29 25 25 21 19 18 16 15 17 19 17 16 15 14 11 9 7 6 10 12 16 18 22 37 39 64
57 74 75 82 64 60 63 86 76 63 68 71 68 63 60 61 62 57 52 48 76 73 37 31 29 26 24 20 17 13 11 16 15 15 12 18 13 11 9 6 7 6 9 10 17 22 34 44 53
64 66 65 69 58 59 67 71 76 82 84 86 88 82 78 76 72 65 56 51 49 78 48 29 27 24 24 23 19 13 11 17 11 14 15 18 14 14 10 11 9 8 10 11 16 17 27 46 51
61 70 75 71 86 88 85 92 95 91 94 85 87 93 92 84 73 69 70 56 45 50 49 33 28 25 25 24 22 19 16 16 16 14 17 18 11 12 11 13 14 13 12 11 9 17 14 44 54
60 61 68 82 85 82 97 107 99 91 91 86 79 75 81 82 69 60 76 60 69 53 41 30 27 25 25 25 21 21 17 14 14 15 19 12 15 13 14 19 22 22 23 19 15 16 17 40 43
50 56 63 79 77 80 89 104 99 96 102 76 74 67 68 81 71 61 71 67 59 45 31 25 25 25 25 23 21 22 13 13 14 12 10 10 11 16 17 18 24 27 30 28 24 24 26 41 50
59 50 59 71 81 87 68 103 84 75 74 58 42 44 49 58 66 66 63 49 47 34 30 27 27 29 29 26 25 20 17 17 16 18 13 10 6 8 9 10 19 29 29 30 31 28 31 36 36
53 56 66 72 75 83 81 85 81 76 79 58 28 31 38 46 50 58 66 56 50 31 30 30 29 32 31 29 29 21 17 17 12 12 9 11 12 11 9 4 7 14 24 38 36 34 44 45 33
50 56 62 63 66 94 81 79 81 73 40 25 27 32 42 48 47 45 44 54 57 36 32 30 29 33 35 31 32 23 16 13 12 14 12 14 18 16 16 14 11 13 21 32 38 39 49 49 38
42 45 69 71 64 77 59 71 82 29 18 29 30 37 44 47 48 51 51 54 54 54 32 32 29 36 39 37 33 23 17 14 14 13 14 13 16 11 15 12 8 5 11 25 43 43 45 46 45
45 38 56 66 67 69 52 52 46 9 16 23 31 36 41 44 50 56 53 56 58 57 20 27 28 41 43 43 34 24 17 16 20 10 12 12 13 13 13 15 22 17 3 11 36 40 45 47 45
45 52 53 76 80 78 65 44 57 33 13 23 28 34 40 43 45 47 49 54 58 46 18 20 31 47 47 44 35 24 14 12 18 13 12 10 10 13 15 15 20 19 11 6 25 39 44 49 38
47 47 55 55 60 65 66 60 56 25 16 21 31 34 39 44 45 44 43 43 37 17 20 27 37 47 49 44 40 23 17 17 13 11 11 7 8 11 14 17 17 15 13 17 11 24 28 43 44
42 60 49 47 62 53 47 48 42 26 34 29 31 35 40 44 45 44 42 41 38 35 35 40 40 41 41 50 39 23 17 12 14 12 9 8 10 11 14 15 15 15 14 14 9 9 21 30 30
73 54 40 60 45 59 64 64 28 44 35 27 29 35 41 46 47 45 42 41 37 38 42 45 40 41 43 48 32 26 24 17 15 14 14 11 12 11 14 14 14 14 16 13 12 14 7 19 26
Wind_Direction
309 311 315 308 300 296 292 292 292 283 298 295 306 306 307 306 325 311 27 24 55 57 61 63 59 53 50 51 55 56 66 67 68 70 67 67 72 75 70 63 67 68 70 66 58 42 356 336 334
312 311 306 302 290 288 291 297 296 286 299 307 306 303 299 298 333 353 4 43 56 50 53 56 57 46 42 37 41 44 59 70 79 77 62 74 90 96 99 91 74 71 75 67 71 64 43 3 344
303 299 299 299 282 269 290 286 275 317 302 296 300 306 304 306 309 338 30 48 40 47 56 56 52 42 33 31 36 44 58 74 93 94 87 92 107 114 116 102 85 91 88 63 66 64 53 42 343
306 297 291 285 270 289 282 285 271 300 302 300 294 293 314 325 319 326 358 28 21 46 46 60 46 34 28 30 38 38 51 65 86 105 105 113 129 132 134 133 135 133 98 19 29 40 33 20 353
284 291 283 287 282 287 276 272 277 291 288 300 301 293 300 313 304 326 339 341 346 10 21 40 32 21 23 30 32 32 38 49 68 89 101 116 138 143 150 155 167 159 327 322 316 309 321 313 289
283 277 280 281 288 289 285 284 283 281 288 295 292 294 294 312 324 307 317 307 327 351 3 9 7 11 19 27 30 33 37 33 45 30 48 86 148 160 163 175 191 287 318 339 326 285 284 287 282
274 276 275 283 286 285 286 293 284 280 284 287 288 287 294 296 310 319 311 300 298 314 337 351 345 355 10 18 23 23 21 18 16 5 351 345 317 245 214 220 214 245 139 301 13 278 287 280 265
274 280 280 281 286 287 292 288 294 282 283 289 292 283 290 300 303 300 303 278 285 303 312 328 334 345 6 11 13 11 14 8 1 348 331 321 311 282 255 255 205 219 206 216 152 279 286 283 265
275 276 274 280 285 290 291 288 285 290 284 285 288 291 291 303 307 297 288 276 275 281 286 303 314 328 354 13 15 9 8 0 350 333 325 321 315 300 220 217 218 229 233 251 262 117 173 253 252
263 270 273 285 289 289 289 291 291 288 284 287 286 288 285 290 293 296 286 270 265 267 270 277 287 305 332 350 4 15 1 344 336 329 322 319 311 285 255 237 219 217 238 272 230 129 145 226 253
265 266 281 285 287 288 292 292 289 283 281 286 288 288 282 281 287 285 284 282 260 261 257 252 259 281 296 334 357 6 348 341 330 320 324 308 304 287 263 266 254 240 239 279 286 267 235 235 246
277 275 278 285 287 287 288 293 283 280 281 285 287 288 285 285 283 275 279 281 277 245 240 243 246 248 258 306 331 345 345 345 336 325 321 318 299 271 261 268 246 258 266 279 266 262 260 258 240
283 285 287 287 288 285 288 287 284 280 283 284 285 284 283 281 281 281 276 277 277 266 237 228 233 238 236 249 301 323 338 339 334 331 321 304 292 264 244 275 253 257 266 264 257 260 260 264 240
289 290 291 288 292 288 289 285 284 281 282 281 282 280 279 278 275 275 278 272 273 273 254 224 225 229 229 244 298 306 327 333 322 324 326 304 294 282 272 271 267 264 257 252 256 262 273 256 241
293 293 293 289 290 289 289 283 280 283 282 279 279 279 277 276 272 273 273 271 268 269 264 221 220 227 232 256 283 293 308 323 322 322 322 312 296 281 242 234 252 264 254 259 259 272 274 257 230
294 295 293 295 293 289 282 281 285 283 283 281 280 278 274 275 273 272 270 269 266 263 253 226 217 227 236 254 270 287 299 314 322 327 322 308 297 289 270 267 233 252 260 259 261 270 267 248 232
294 291 292 294 297 293 290 287 288 286 284 283 283 284 282 279 275 273 268 264 260 259 251 223 212 226 230 246 256 276 301 313 326 332 328 314 299 293 288 263 263 223 250 251 271 277 261 243 233
295 296 297 297 301 294 285 283 282 280 281 280 278 276 276 277 276 276 271 264 261 254 256 221 216 227 233 248 253 276 297 312 327 330 324 313 302 294 287 287 265 248 257 269 274 271 264 241 233
298 298 297 298 289 293 287 281 280 282 279 279 277 272 271 272 274 273 270 265 257 253 253 214 205 231 233 238 239 261 282 305 320 324 318 306 299 290 285 284 275 263 249 248 226 264 240 232 227
298 299 300 296 291 290 282 280 282 282 281 279 279 278 272 271 272 270 263 263 258 260 247 208 215 226 228 233 241 261 276 298 318 324 315 299 300 290 286 278 270 265 267 257 228 196 239 233 232
295 297 302 296 297 292 288 277 280 274 278 280 276 277 277 268 268 267 263 260 261 255 241 213 218 225 224 228 247 263 273 302 316 321 321 295 290 288 285 276 272 269 265 252 230 216 216 234 234
294 299 298 299 292 285 295 270 283 287 283 284 293 285 284 278 264 264 263 263 260 247 237 234 231 230 231 224 245 244 257 282 301 312 321 310 274 289 272 263 267 264 258 249 234 228 217 232 228
293 301 298 298 293 287 283 279 283 286 280 283 289 298 299 294 275 267 262 267 266 243 236 232 229 225 228 229 248 247 262 286 313 319 332 338 340 329 318 262 245 254 253 256 239 238 238 229 216
296 298 292 295 296 274 280 282 280 277 298 293 294 303 292 288 290 288 284 273 267 265 228 221 224 221 230 237 249 248 255 275 307 320 328 331 327 324 318 315 305 282 204 242 243 237 238 229 219
291 294 283 285 283 278 292 280 277 284 304 283 306 301 300 292 290 285 287 284 282 273 225 216 216 225 234 239 248 251 255 277 301 318 329 333 324 347 337 345 341 262 228 225 243 238 236 226 213
281 279 275 278 279 280 301 285 297 316 317 315 311 307 307 300 294 282 286 288 284 284 214 216 214 234 231 240 247 254 259 280 300 321 340 338 329 340 0 3 340 339 19 202 242 241 235 220 213
275 278 279 274 275 275 280 295 250 301 327 319 321 313 304 302 300 295 292 292 283 289 203 204 239 241 235 241 246 248 253 279 297 318 353 356 347 340 348 27 360 360 56 113 258 241 237 219 215
271 275 272 273 276 272 265 265 283 297 318 319 326 316 310 309 305 300 300 300 310 309 281 262 247 247 238 241 247 244 260 279 306 318 345 24 11 1 9 7 18 22 36 107 291 255 240 225 225
275 262 273 277 266 271 279 266 295 315 316 326 327 323 320 317 311 303 298 301 305 297 276 261 253 249 238 238 243 241 258 277 294 305 341 5 5 13 15 24 32 51 61 72 81 283 235 219 227
268 264 261 261 270 264 262 252 319 260 309 329 340 330 326 325 319 308 302 296 304 292 278 263 259 246 235 242 238 243 263 276 289 297 308 338 337 16 30 35 38 41 78 71 89 111 166 245 234